Plainview, TX

12:41 AM CDT on March 23, 2017 (GMT -0500)
Hale County

Weather History for KPVW - February, 2013

Change the Weather History Date:

Wednesday, February 27, 2013

  Actual Average Record
Temperature  
Mean Temperature 34 °F -  
Max Temperature 41 °F 59 °F 83 °F (1986)
Min Temperature 28 °F 31 °F 12 °F (1960)
Degree Days  
Heating Degree Days 30    
Moisture  
Dew Point 28 °F    
Average Humidity 78    
Maximum Humidity 93    
Minimum Humidity 61    
Precipitation  
Precipitation 0.00 in - - ()
Sea Level Pressure  
Sea Level Pressure 30.15 in    
Wind  
Wind Speed 13 mph (NNW)    
Max Wind Speed 25 mph    
Max Gust Speed 30 mph    
Visibility 10 miles    
Events      
Averages and records for this station are not official NWS values.
T = Trace of Precipitation, MM = Missing Value Source: NWS Daily Summary

Daily Weather History Graph

Daily Weather History Graph

Search for Another Location

Airport or City:

Trip Planner

Search our weather history database for the weather conditions in past years. The results will help you decide how hot, cold, wet, or windy it might be!

Date:

Astronomy

Feb. 27, 2013 Rise Set
Actual Time 7:17 AM CST 6:41 PM CST
Civil Twilight 6:52 AM CST 7:06 PM CST
Nautical Twilight 6:23 AM CST 7:36 PM CST
Astronomical Twilight 5:54 AM CST 8:05 PM CST
Moon 8:56 PM CST (2/27) 8:01 AM CST (2/27)
Length of Visible Light 12h 14m
Length of Day
11h 23m
Waning Gibbous, 96% of the Moon is Illuminated
Feb 27
Waning Gibbous
Mar 4
Last Quarter
Mar 11
New
Mar 19
First Quarter
Mar 27
Full

Hourly Weather History & Observations

Time (CST) Temp. Windchill Dew Point Humidity Pressure Visibility Wind Dir Wind Speed Gust Speed Precip Events Conditions
12:15 AM 32.0 °F 22.5 °F 26.6 °F 80% 29.94 in 10.0 mi North 12.7 mph - N/A   Clear
12:35 AM 32.0 °F 23.6 °F 23.0 °F 69% 29.95 in 10.0 mi North 10.4 mph - N/A   Clear
12:55 AM 30.2 °F 19.8 °F 23.0 °F 75% 29.96 in 10.0 mi NNW 13.8 mph - N/A   Clear
1:15 AM 30.2 °F 20.2 °F 23.0 °F 75% 29.97 in 10.0 mi NNW 12.7 mph - N/A   Clear
1:35 AM 30.2 °F 21.9 °F 23.0 °F 75% 29.97 in 10.0 mi NNW 9.2 mph - N/A   Clear
1:55 AM 30.2 °F 20.8 °F 23.0 °F 75% 29.99 in 10.0 mi NNW 11.5 mph - N/A   Clear
2:15 AM 30.2 °F 20.8 °F 24.8 °F 80% 29.99 in 10.0 mi NW 11.5 mph - N/A   Clear
2:35 AM 30.2 °F 20.8 °F 26.6 °F 86% 29.99 in 10.0 mi NW 11.5 mph - N/A   Clear
2:55 AM 30.2 °F 20.2 °F 26.6 °F 86% 30.00 in 10.0 mi NW 12.7 mph - N/A   Clear
3:15 AM 30.2 °F 20.2 °F 26.6 °F 86% 30.01 in 10.0 mi NW 12.7 mph - N/A   Clear
3:35 AM 30.2 °F 19.3 °F 26.6 °F 86% 30.01 in 10.0 mi NW 15.0 mph - N/A   Clear
3:55 AM 30.2 °F 19.3 °F 26.6 °F 86% 30.02 in 10.0 mi NW 15.0 mph - N/A   Mostly Cloudy
4:15 AM 30.2 °F 20.2 °F 26.6 °F 86% 30.02 in 10.0 mi NW 12.7 mph - N/A   Scattered Clouds
4:35 AM 30.2 °F 19.8 °F 26.6 °F 86% 30.03 in 10.0 mi NW 13.8 mph - N/A   Clear
4:55 AM 30.2 °F 19.3 °F 24.8 °F 80% 30.04 in 10.0 mi NNW 15.0 mph - N/A   Clear
5:15 AM 30.2 °F 19.3 °F 24.8 °F 80% 30.05 in 10.0 mi NNW 15.0 mph 20.7 mph N/A   Clear
5:35 AM 30.2 °F 19.3 °F 24.8 °F 80% 30.06 in 10.0 mi NW 15.0 mph - N/A   Clear
5:55 AM 30.2 °F 20.2 °F 26.6 °F 86% 30.07 in 10.0 mi NW 12.7 mph - N/A   Clear
6:15 AM 30.2 °F 21.3 °F 26.6 °F 86% 30.08 in 10.0 mi NW 10.4 mph - N/A   Clear
6:35 AM 28.4 °F 20.4 °F 23.0 °F 80% 30.09 in 10.0 mi NW 8.1 mph - N/A   Clear
6:55 AM 28.4 °F 19.7 °F 23.0 °F 80% 30.11 in 10.0 mi NW 9.2 mph - N/A   Clear
7:15 AM 28.4 °F 18.5 °F 23.0 °F 80% 30.11 in 10.0 mi NW 11.5 mph - N/A   Clear
7:35 AM 30.2 °F 19.3 °F 26.6 °F 86% 30.12 in 10.0 mi NW 15.0 mph - N/A   Clear
7:55 AM 30.2 °F 20.2 °F 26.6 °F 86% 30.13 in 10.0 mi NW 12.7 mph - N/A   Clear
8:15 AM 30.2 °F 20.2 °F 26.6 °F 86% 30.15 in 10.0 mi NNW 12.7 mph 18.4 mph N/A   Clear
8:35 AM 30.2 °F 20.8 °F 26.6 °F 86% 30.17 in 10.0 mi NNW 11.5 mph - N/A   Clear
9:15 AM 33.8 °F 22.8 °F 30.2 °F 87% 30.19 in 10.0 mi NNW 18.4 mph 25.3 mph N/A   Clear
9:35 AM 33.8 °F 24.3 °F 28.4 °F 81% 30.20 in 10.0 mi North 13.8 mph - N/A   Clear
9:55 AM 33.8 °F 22.2 °F 28.4 °F 81% 30.21 in 10.0 mi North 20.7 mph - N/A   Clear
10:15 AM 33.8 °F 22.8 °F 28.4 °F 81% 30.21 in 10.0 mi North 18.4 mph 25.3 mph N/A   Clear
10:35 AM 35.6 °F 24.8 °F 30.2 °F 81% 30.22 in 10.0 mi North 19.6 mph - N/A   Clear
10:55 AM 35.6 °F 25.9 °F 30.2 °F 81% 30.22 in 10.0 mi NNW 16.1 mph 24.2 mph N/A   Clear
11:15 AM 35.6 °F 25.2 °F 30.2 °F 81% 30.23 in 10.0 mi North 18.4 mph 24.2 mph N/A   Clear
11:35 AM 35.6 °F 24.5 °F 30.2 °F 81% 30.23 in 10.0 mi North 20.7 mph 27.6 mph N/A   Clear
11:55 AM 35.6 °F 24.2 °F 30.2 °F 81% 30.23 in 10.0 mi North 21.9 mph 26.5 mph N/A   Clear
12:15 PM 37.4 °F 26.6 °F 32.0 °F 81% 30.22 in 10.0 mi North 21.9 mph 27.6 mph N/A   Clear
12:35 PM 39.2 °F 28.3 °F 30.2 °F 70% 30.23 in 10.0 mi North 25.3 mph 29.9 mph N/A   Clear
12:55 PM 39.2 °F 29.8 °F 30.2 °F 70% 30.24 in 10.0 mi North 18.4 mph 26.5 mph N/A   Scattered Clouds
1:15 PM 39.2 °F 29.3 °F 30.2 °F 70% 30.23 in 10.0 mi North 20.7 mph - N/A   Scattered Clouds
1:35 PM 39.2 °F 29.0 °F 30.2 °F 70% 30.23 in 10.0 mi North 21.9 mph 26.5 mph N/A   Scattered Clouds
1:55 PM 39.2 °F 30.2 °F 30.2 °F 70% 30.22 in 10.0 mi North 17.3 mph 23.0 mph N/A   Scattered Clouds
2:15 PM 41.0 °F 32.2 °F 30.2 °F 65% 30.22 in 10.0 mi North 18.4 mph - N/A   Clear
2:35 PM 41.0 °F 33.5 °F 30.2 °F 65% 30.22 in 10.0 mi NNW 13.8 mph 19.6 mph N/A   Clear
2:55 PM 41.0 °F 32.5 °F 30.2 °F 65% 30.21 in 10.0 mi North 17.3 mph - N/A   Clear
3:15 PM 41.0 °F 32.5 °F 30.2 °F 65% 30.21 in 10.0 mi NNW 17.3 mph - N/A   Clear
3:35 PM 41.0 °F 32.8 °F 28.4 °F 61% 30.21 in 10.0 mi North 16.1 mph 23.0 mph N/A   Scattered Clouds
3:55 PM 41.0 °F 33.5 °F 28.4 °F 61% 30.20 in 10.0 mi North 13.8 mph - N/A   Scattered Clouds
4:15 PM 41.0 °F 33.9 °F 28.4 °F 61% 30.20 in 10.0 mi North 12.7 mph 18.4 mph N/A   Clear
4:35 PM 41.0 °F 34.7 °F 28.4 °F 61% 30.21 in 10.0 mi North 10.4 mph - N/A   Clear
4:55 PM 41.0 °F 33.9 °F 28.4 °F 61% 30.21 in 10.0 mi North 12.7 mph - N/A   Clear
5:15 PM 41.0 °F 33.9 °F 28.4 °F 61% 30.21 in 10.0 mi North 12.7 mph - N/A   Clear
5:35 PM 41.0 °F 34.7 °F 28.4 °F 61% 30.21 in 10.0 mi North 10.4 mph - N/A   Clear
5:55 PM 41.0 °F 35.8 °F 28.4 °F 61% 30.21 in 10.0 mi North 8.1 mph - N/A   Clear
6:15 PM 39.2 °F 33.6 °F 28.4 °F 65% 30.21 in 10.0 mi North 8.1 mph - N/A   Clear
6:35 PM 39.2 °F 35.0 °F 30.2 °F 70% 30.21 in 10.0 mi North 5.8 mph - N/A   Clear
6:55 PM 35.6 °F 30.7 °F 28.4 °F 75% 30.22 in 10.0 mi North 5.8 mph - N/A   Clear
7:15 PM 35.6 °F 31.7 °F 30.2 °F 81% 30.22 in 10.0 mi NNW 4.6 mph - N/A   Clear
7:35 PM 33.8 °F 29.6 °F 28.4 °F 81% 30.22 in 10.0 mi North 4.6 mph - N/A   Clear
7:55 PM 33.8 °F 29.6 °F 28.4 °F 81% 30.23 in 10.0 mi North 4.6 mph - N/A   Clear
8:15 PM 33.8 °F 29.6 °F 28.4 °F 81% 30.23 in 10.0 mi NW 4.6 mph - N/A   Clear
8:35 PM 32.0 °F 27.5 °F 28.4 °F 87% 30.23 in 10.0 mi West 4.6 mph - N/A   Clear
8:55 PM 32.0 °F 27.5 °F 28.4 °F 87% 30.24 in 10.0 mi West 4.6 mph - N/A   Clear
9:15 PM 30.2 °F 23.4 °F 26.6 °F 86% 30.23 in 10.0 mi WNW 6.9 mph - N/A   Clear
9:35 PM 30.2 °F 24.3 °F 28.4 °F 93% 30.24 in 10.0 mi WNW 5.8 mph - N/A   Clear
9:55 PM 30.2 °F 23.4 °F 26.6 °F 86% 30.24 in 10.0 mi WNW 6.9 mph - N/A   Clear
10:15 PM 30.2 °F 25.4 °F 26.6 °F 86% 30.24 in 10.0 mi West 4.6 mph - N/A   Clear
10:35 PM 30.2 °F 24.3 °F 28.4 °F 93% 30.25 in 10.0 mi West 5.8 mph - N/A   Clear
10:55 PM 30.2 °F 25.4 °F 28.4 °F 93% 30.25 in 10.0 mi West 4.6 mph - N/A   Clear
11:15 PM 30.2 °F 25.4 °F 28.4 °F 93% 30.25 in 10.0 mi West 4.6 mph - N/A   Clear